Satellite-Ground Cal/Val Region Overpasses Predictions

Prediction of Satellite NPP Overpassing Cal/Val Region: PacNW

Region Location: (Latitude: 10.00, Longitude: 139.50) to (Latitude: 22.70, Longitude: 165.60).

Table of predicted overpasses for the next 14.0 days since TLE Epoch: 8/4/2017
Interval Starting Time Starting Location Ending Time Ending Location
1 08/05/2017 03:10:57 ( 10.05, 152.03) 08/05/2017 03:14:32 ( 22.67, 149.03)
2 08/05/2017 15:42:49 ( 22.69, 149.28) 08/05/2017 15:46:25 ( 10.02, 146.26)
3 08/06/2017 02:51:55 ( 10.02, 156.79) 08/06/2017 02:55:31 ( 22.70, 153.77)
4 08/06/2017 15:23:49 ( 22.66, 154.03) 08/06/2017 15:27:24 ( 10.05, 151.02)
5 08/07/2017 02:32:55 ( 10.05, 161.54) 08/07/2017 02:36:30 ( 22.67, 158.54)
6 08/07/2017 15:04:47 ( 22.69, 158.79) 08/07/2017 15:08:23 ( 10.02, 155.77)
7 08/08/2017 02:14:45 ( 13.08, 165.60) 08/08/2017 02:17:28 ( 22.64, 163.30)
8 08/08/2017 03:55:23 ( 10.02, 140.93) 08/08/2017 03:57:07 ( 16.13, 139.51)
9 08/08/2017 14:45:47 ( 22.66, 163.54) 08/08/2017 14:49:22 ( 10.04, 160.53)
10 08/09/2017 03:36:23 ( 10.05, 145.67) 08/09/2017 03:39:58 ( 22.68, 142.67)
11 08/09/2017 14:29:58 ( 11.36, 165.59) 08/09/2017 14:30:21 ( 10.01, 165.28)
12 08/09/2017 16:08:15 ( 22.69, 142.92) 08/09/2017 16:11:51 ( 10.01, 139.90)
13 08/10/2017 03:17:21 ( 10.03, 150.44) 08/10/2017 03:20:56 ( 22.65, 147.43)
14 08/10/2017 15:49:15 ( 22.66, 147.67) 08/10/2017 15:52:50 ( 10.04, 144.67)
15 08/11/2017 02:58:20 ( 10.00, 155.20) 08/11/2017 03:01:56 ( 22.68, 152.18)
16 08/11/2017 15:30:14 ( 22.69, 152.43) 08/11/2017 15:33:50 ( 10.01, 149.41)
17 08/12/2017 02:39:19 ( 10.03, 159.94) 08/12/2017 02:42:54 ( 22.66, 156.94)
18 08/12/2017 15:11:13 ( 22.65, 157.18) 08/12/2017 15:14:48 ( 10.04, 154.17)
19 08/13/2017 02:20:18 ( 10.01, 164.71) 08/13/2017 02:23:54 ( 22.69, 161.69)
20 08/13/2017 14:52:12 ( 22.68, 161.94) 08/13/2017 14:55:48 ( 10.00, 158.92)
21 08/14/2017 03:42:47 ( 10.04, 144.08) 08/14/2017 03:46:22 ( 22.67, 141.07)
22 08/14/2017 14:34:27 ( 18.19, 165.59) 08/14/2017 14:36:46 ( 10.03, 163.68)
23 08/14/2017 16:14:41 ( 22.65, 141.31) 08/14/2017 16:16:48 ( 15.20, 139.51)
24 08/15/2017 03:23:46 ( 10.02, 148.84) 08/15/2017 03:27:22 ( 22.70, 145.82)
25 08/15/2017 15:55:40 ( 22.67, 146.07) 08/15/2017 15:59:15 ( 10.06, 143.07)
26 08/16/2017 03:04:45 ( 10.05, 153.59) 08/16/2017 03:08:20 ( 22.67, 150.58)
27 08/16/2017 15:36:39 ( 22.64, 150.82) 08/16/2017 15:40:14 ( 10.02, 147.82)
28 08/17/2017 02:45:44 ( 10.02, 158.35) 08/17/2017 02:49:19 ( 22.65, 155.34)
29 08/17/2017 15:17:38 ( 22.67, 155.58) 08/17/2017 15:21:13 ( 10.05, 152.58)
30 08/18/2017 02:26:44 ( 10.06, 163.09) 08/18/2017 02:30:19 ( 22.68, 160.09)


NCC Satellite Cal/Val Overpasses Prediction Service
